[[{"header":{"parameterUnit":"m.s-1","parameterCategory":1,"la1":30.2991,"la2":30.254,"lo1":-89.0895,"lo2":-89.0444,"dy":0.0017,"dx":0.0017,"nx":28,"ny":28,"refTime":"2023-10-29T09:00:00:Z","depth":0,"parameterNumber":2,"parameterNumberName":"U-component_of_WINDS"},"data":[0,0,0,0,0,0,0,0,0,0,0,0,0,0,0,0,0,0,0,0,0,0,0,0,0,0,0,0,0,0,0,0,0,0,0,0,0,0,0,0,0,0,0,0,0,0,0,0,0,0,0,0,0,0,0,0,0,0,-0.5002,-0.5002,0,-0.4975,-0.4975,-0.4974,-0.4938,-0.4938,-0.4937,-0.4937,-0.4911,-0.4911,-0.4911,0,0,0,0,0,0,0,0,0,0,0,0,0,-0.5025,-0.5024,-0.5002,-0.5002,-0.5001,-0.4975,-0.4975,-0.4974,-0.4938,-0.4938,-0.4937,-0.4936,-0.4912,-0.4911,-0.4911,0,0,0,0,0,0,0,0,0,0,0,0,0,-0.5008,-0.5024,-0.5002,-0.498,-0.4978,-0.4975,-0.4975,-0.4974,-0.4939,-0.4938,-0.4937,-0.4936,-0.4912,-0.4911,-0.4911,-0.4928,0,0,-0.4911,-0.4911,0,0,0,0,0,0,0,0,-0.5009,-0.5007,-0.4984,-0.4982,-0.4979,-0.4959,-0.4973,-0.4959,-0.4939,-0.4954,-0.4937,-0.4936,-0.4928,-0.4927,-0.4924,-0.4927,-0.4926,-0.4911,-0.4911,-0.4911,-0.4911,0,0,0,0,0,0,0,-0.501,-0.5008,-0.4991,-0.4984,-0.4981,-0.4972,-0.4969,-0.497,-0.4946,-0.4952,-0.495,-0.4947,-0.4927,-0.4924,-0.4923,-0.4926,-0.4911,-0.4911,-0.4911,-0.491,-0.4941,-0.4942,0,0,0,0,0,0,-0.5014,-0.5009,-0.4992,-0.4991,-0.4992,-0.4973,-0.4969,-0.4967,-0.4946,-0.4942,-0.4948,-0.4945,-0.4925,-0.4923,-0.4922,-0.494,-0.4911,-0.491,-0.491,-0.4941,-0.4942,-0.4943,0,0,0,0,0,0,-0.5015,-0.5013,-0.4993,-0.4999,-0.4996,-0.4973,-0.4971,-0.4966,-0.4963,-0.4943,-0.4938,-0.4949,-0.4924,-0.4922,-0.4927,-0.4939,-0.491,-0.491,-0.4939,-0.4941,-0.4942,-0.4977,0,0,0,0,0,0,-0.5016,-0.5014,-0.502,-0.5,-0.4996,-0.4998,-0.4972,-0.4967,-0.4963,-0.496,-0.4943,-0.4939,-0.4923,-0.4927,-0.4927,-0.4938,-0.491,-0.4938,-0.494,-0.4942,-0.4975,-0.498,-0.4984,0,0,0,0,0,-0.5017,-0.5031,-0.502,-0.5018,-0.5003,-0.4999,-0.4997,-0.4977,-0.4964,-0.497,-0.4957,-0.494,-0.4937,-0.4928,-0.4927,-0.4939,-0.4937,-0.494,-0.4942,-0.4973,-0.4979,-0.4984,0,0,0,0,0,0,-0.5054,-0.5028,-0.5016,-0.5024,-0.5014,-0.4993,-0.5,-0.4984,-0.4979,-0.4976,-0.4952,-0.4949,-0.4956,-0.4948,-0.4938,-0.4954,-0.4935,-0.4937,-0.4959,-0.4965,-0.4969,-0.4971,-0.491,0,0,0,0,0,-0.5063,-0.5062,-0.504,-0.5049,-0.5045,-0.5023,-0.5021,-0.5006,-0.4996,-0.4991,-0.4978,-0.4969,-0.4966,-0.4965,-0.4961,-0.4973,-0.4969,-0.4981,-0.4985,-0.4989,-0.4991,-0.4997,-0.5002,-0.4949,-0.4949,-0.4949,0,0,-0.5083,-0.5068,-0.5069,-0.5056,-0.5047,-0.5046,-0.502,-0.5021,-0.502,-0.4992,-0.4995,-0.4985,-0.4973,-0.4982,-0.4985,-0.4975,-0.5005,-0.4992,-0.4995,-0.4995,-0.5,-0.5005,-0.5009,-0.4951,-0.4951,-0.495,0,0,-0.5118,-0.5106,-0.5113,-0.5104,-0.5089,-0.5074,-0.5076,-0.5057,-0.5049,-0.5052,-0.503,-0.503,-0.5025,-0.5017,-0.5013,-0.5043,-0.5028,-0.5043,-0.5066,-0.5072,-0.5076,-0.508,-0.5091,-0.5095,-0.5045,-0.5045,-0.5045,0,-0.5144,-0.5141,-0.5119,-0.512,-0.5115,-0.5088,-0.5095,-0.5087,-0.5073,-0.507,-0.5059,-0.5052,-0.5042,-0.5048,-0.5055,-0.5053,-0.5054,-0.5045,-0.5077,-0.5081,-0.5084,-0.5094,-0.5098,-0.5047,-0.5047,-0.5046,-0.5046,0,-0.5174,-0.5173,-0.518,-0.5165,-0.5161,-0.5166,-0.5144,-0.5142,-0.5128,-0.5115,-0.5118,-0.5105,-0.5097,-0.5098,-0.5084,-0.5102,-0.5096,-0.5081,-0.5062,-0.5091,-0.51,-0.5104,-0.505,-0.5049,-0.5048,-0.5048,0,0,-0.5234,-0.5205,-0.5208,-0.5201,-0.5182,-0.5181,-0.5184,-0.5175,-0.5175,-0.5165,-0.5168,-0.5164,-0.515,-0.5145,-0.513,-0.5135,-0.516,-0.5119,-0.5119,-0.5128,-0.5179,-0.5191,-0.5195,-0.5149,-0.515,-0.515,-0.518,0,-0.5265,-0.5268,-0.5247,-0.5255,-0.5254,-0.5227,-0.523,-0.5219,-0.5206,-0.5204,-0.519,-0.5188,-0.5169,-0.5166,-0.517,-0.5156,-0.517,-0.5154,-0.5152,-0.5152,-0.5156,-0.52,-0.5213,-0.5241,-0.5183,-0.5184,-0.5184,0,-0.5303,-0.5294,-0.5302,-0.5282,-0.5281,-0.5283,-0.5274,-0.5271,-0.5259,-0.5249,-0.5243,-0.5225,-0.5227,-0.5208,-0.5211,-0.52,-0.5198,-0.5191,-0.5191,-0.5191,-0.5171,-0.5202,-0.525,-0.5255,-0.519,-0.519,-0.5189,0,-0.5345,-0.5336,-0.5339,-0.5334,-0.531,-0.5313,-0.5303,-0.5289,-0.5286,-0.5277,-0.5275,-0.5267,-0.5264,-0.5259,-0.524,-0.5228,-0.5245,-0.5224,-0.5238,-0.5238,-0.5243,-0.5243,-0.5293,-0.5241,-0.5241,-0.5241,-0.5241,0,-0.5383,-0.539,-0.5358,-0.536,-0.5366,-0.5342,-0.5349,-0.5337,-0.5324,-0.5324,-0.5301,-0.5301,-0.5276,-0.5274,-0.5259,-0.5264,-0.5262,-0.5255,-0.5251,-0.5257,-0.5259,-0.5256,-0.5254,-0.5242,-0.5242,-0.5241,-0.5241,0,-0.5433,-0.5411,-0.5413,-0.5391,-0.5385,-0.5391,-0.5371,-0.5373,-0.5358,-0.5358,-0.5357,-0.5334,-0.5331,-0.5311,-0.5303,-0.5293,-0.5303,-0.5295,-0.5307,-0.5305,-0.5319,-0.5318,-0.537,-0.5375,-0.5319,-0.532,-0.532,0,-0.5459,-0.5463,-0.544,-0.5437,-0.5428,-0.5425,-0.5421,-0.5397,-0.5393,-0.5378,-0.5381,-0.5375,-0.5369,-0.5364,-0.5348,-0.5342,-0.5333,-0.5352,-0.5333,-0.5339,-0.5334,-0.5335,-0.5335,-0.5356,-0.5357,-0.5358,-0.5358,0,-0.5507,-0.5496,-0.549,-0.548,-0.5475,-0.5467,-0.5457,-0.5456,-0.543,-0.5427,-0.5422,-0.5417,-0.5408,-0.5403,-0.5393,-0.5384,-0.5367,-0.5364,-0.5367,-0.5374,-0.5381,-0.5378,-0.5319,-0.5363,-0.5363,-0.5362,-0.5362,-0.5362,-0.5546,-0.5548,-0.5532,-0.5526,-0.5515,-0.5506,-0.5506,-0.5491,-0.5486,-0.5476,-0.5462,-0.5459,-0.5445,-0.5431,-0.5423,-0.5421,-0.5411,-0.5415,-0.5416,-0.5418,-0.5421,-0.538,-0.5419,-0.5419,-0.5418,-0.5418,-0.5418,0,-0.5594,-0.5582,-0.5576,-0.5562,-0.5557,-0.554,-0.5527,-0.5525,-0.5522,-0.551,-0.5504,-0.5499,-0.5493,-0.5475,-0.5468,-0.5469,-0.5461,-0.5468,-0.5469,-0.5467,-0.543,-0.5428,-0.5475,-0.5475,-0.5475,-0.5475,-0.5475,-0.5475,-0.5618,-0.562,-0.5607,-0.5604,-0.5592,-0.5588,-0.5582,-0.5574,-0.5564,-0.5559,-0.5553,-0.5541,-0.5527,-0.5518,-0.5512,-0.5507,-0.5506,-0.5516,-0.5509,-0.5475,-0.5469,-0.5464,-0.5463,-0.5516,-0.5516,-0.5545,-0.5546,-0.5546]},{"header":{"parameterUnit":"m.s-1","parameterCategory":1,"la1":30.2991,"la2":30.254,"lo1":-89.0895,"lo2":-89.0444,"dy":0.0017,"dx":0.0017,"nx":28,"ny":28,"refTime":"2023-10-29T09:00:00:Z","depth":0,"parameterNumber":3,"parameterNumberName":"V-component_of_WINDS"},"data":[0,0,0,0,0,0,0,0,0,0,0,0,0,0,0,0,0,0,0,0,0,0,0,0,0,0,0,0,0,0,0,0,0,0,0,0,0,0,0,0,0,0,0,0,0,0,0,0,0,0,0,0,0,0,0,0,0,0,0.9171,0.9171,0,0.922,0.922,0.9221,0.9212,0.9211,0.921,0.9209,0.9257,0.9259,0.9261,0,0,0,0,0,0,0,0,0,0,0,0,0,0.9068,0.907,0.9171,0.9172,0.9172,0.9219,0.922,0.9221,0.9212,0.9211,0.921,0.9209,0.9257,0.9259,0.9261,0,0,0,0,0,0,0,0,0,0,0,0,0,0.9114,0.9071,0.9171,0.9174,0.9174,0.9219,0.922,0.9221,0.9212,0.9211,0.921,0.9209,0.9256,0.9259,0.9262,0.9307,0,0,0.9271,0.9273,0,0,0,0,0,0,0,0,0.9112,0.9118,0.9173,0.9173,0.9174,0.9208,0.9201,0.925,0.9213,0.9198,0.9209,0.9208,0.9242,0.9246,0.9258,0.9309,0.9311,0.9272,0.9273,0.9275,0.9276,0,0,0,0,0,0,0,0.9108,0.9116,0.919,0.9173,0.9174,0.9172,0.9177,0.921,0.9226,0.9199,0.9198,0.9204,0.9242,0.9255,0.9259,0.9312,0.9271,0.9274,0.9276,0.9277,0.9401,0.9402,0,0,0,0,0,0,0.9105,0.9113,0.9189,0.9192,0.9139,0.9174,0.918,0.9199,0.9226,0.9229,0.9206,0.9204,0.925,0.9255,0.9261,0.9315,0.9275,0.9278,0.9279,0.9399,0.9401,0.9403,0,0,0,0,0,0,0.9103,0.9112,0.9187,0.9152,0.9162,0.9178,0.9198,0.92,0.9213,0.9231,0.9233,0.9216,0.9249,0.9256,0.9295,0.9316,0.9279,0.9282,0.9398,0.94,0.9402,0.9423,0,0,0,0,0,0,0.91,0.9111,0.9129,0.9153,0.9164,0.9221,0.92,0.9202,0.9219,0.9217,0.9241,0.9244,0.9249,0.9291,0.9298,0.932,0.9284,0.9396,0.9399,0.9401,0.9421,0.9426,0.943,0,0,0,0,0,0.9096,0.9132,0.913,0.9139,0.9186,0.9223,0.9229,0.9234,0.9221,0.9238,0.9249,0.9243,0.9312,0.9295,0.9303,0.9326,0.9395,0.9398,0.9401,0.9419,0.9425,0.943,0,0,0,0,0,0,0.911,0.9136,0.9133,0.9178,0.9198,0.9221,0.9244,0.924,0.9264,0.9262,0.9267,0.9272,0.9312,0.9323,0.9302,0.937,0.9352,0.9357,0.9362,0.9368,0.9373,0.9369,0.9287,0,0,0,0,0,0.9118,0.9146,0.9167,0.9205,0.9215,0.9228,0.9244,0.9246,0.9267,0.9275,0.9289,0.9309,0.9335,0.9352,0.9377,0.9422,0.9427,0.9442,0.9446,0.945,0.9455,0.9479,0.9486,0.9413,0.9413,0.9413,0,0,0.9136,0.9153,0.9171,0.9208,0.9224,0.9252,0.9235,0.9265,0.9286,0.9279,0.9317,0.9328,0.935,0.9392,0.9412,0.9403,0.9476,0.9454,0.9457,0.946,0.9483,0.949,0.9496,0.9415,0.9415,0.9415,0,0,0.9182,0.9199,0.9232,0.9248,0.9272,0.928,0.9288,0.9311,0.9319,0.9357,0.9352,0.9376,0.9421,0.9437,0.9451,0.9503,0.9498,0.951,0.9535,0.9559,0.9565,0.957,0.9588,0.9595,0.9515,0.9515,0.9515,0,0.9201,0.9244,0.9249,0.9281,0.9297,0.9292,0.9326,0.9341,0.9372,0.9383,0.9372,0.9429,0.9443,0.9489,0.9501,0.9513,0.9521,0.9508,0.9563,0.9569,0.9573,0.9591,0.9598,0.9516,0.9516,0.9516,0.9516,0,0.9266,0.9295,0.9319,0.935,0.9369,0.9401,0.941,0.9429,0.9429,0.9438,0.9476,0.9493,0.9522,0.9532,0.9533,0.9578,0.9572,0.9562,0.9544,0.9582,0.9598,0.9605,0.9518,0.9518,0.9517,0.9517,0,0,0.9323,0.9356,0.9365,0.9378,0.9404,0.9427,0.9458,0.9487,0.9502,0.9523,0.9549,0.9587,0.9578,0.9594,0.9596,0.9617,0.9656,0.9605,0.9605,0.9614,0.9707,0.9714,0.9722,0.9653,0.9654,0.9655,0.9705,0,0.9372,0.9429,0.9434,0.9484,0.9512,0.9507,0.9534,0.9553,0.9561,0.9585,0.9594,0.9621,0.9607,0.9617,0.9637,0.9647,0.9675,0.9644,0.9677,0.9678,0.9672,0.973,0.9738,0.9784,0.9711,0.9712,0.9713,0,0.9438,0.9461,0.9515,0.9536,0.9548,0.9572,0.9598,0.9621,0.9641,0.9646,0.9664,0.9663,0.9694,0.9674,0.9716,0.9695,0.9708,0.9715,0.9717,0.9721,0.9698,0.9736,0.9799,0.9806,0.9723,0.9723,0.9722,0,0.9474,0.9519,0.9557,0.9569,0.9595,0.9612,0.9624,0.9643,0.9659,0.9682,0.9692,0.9717,0.9731,0.975,0.9756,0.9741,0.9799,0.9779,0.9803,0.9803,0.9816,0.9815,0.9883,0.9824,0.9824,0.9824,0.9824,0,0.9529,0.9562,0.9574,0.9597,0.9633,0.9638,0.9674,0.9684,0.9701,0.9725,0.9722,0.9745,0.9751,0.9775,0.9779,0.9814,0.982,0.9824,0.9825,0.9825,0.9824,0.9834,0.9831,0.9826,0.9825,0.9825,0.9824,0,0.9577,0.9586,0.9627,0.9649,0.9655,0.968,0.9698,0.972,0.9728,0.9759,0.9766,0.9778,0.9806,0.9813,0.9846,0.9849,0.9889,0.9887,0.9883,0.9883,0.9907,0.9905,0.9984,0.9994,0.9928,0.9929,0.9929,0,0.9612,0.9637,0.9661,0.9677,0.969,0.9716,0.9733,0.9739,0.9756,0.9781,0.9799,0.9826,0.9849,0.9893,0.9904,0.9929,0.9927,0.9953,0.9931,0.9929,0.9928,0.9926,0.9929,0.9957,0.9958,0.9958,0.9959,0,0.9672,0.9675,0.97,0.9726,0.9747,0.9767,0.9787,0.9801,0.9808,0.9828,0.9857,0.9874,0.9907,0.9934,0.9959,0.997,0.9966,0.9966,0.9973,0.9973,0.997,0.9972,0.9895,0.9964,0.9964,0.9963,0.9963,0.9963,0.9714,0.9736,0.9757,0.9784,0.98,0.9818,0.984,0.985,0.9875,0.9903,0.9904,0.9935,0.9953,0.9986,0.9999,1.0022,1.0014,1.0024,1.0027,1.0029,1.0032,0.9965,1.0026,1.0026,1.0026,1.0026,1.0026,0,0.9775,0.9788,0.9813,0.9841,0.9862,0.9857,0.9878,0.9896,0.9924,0.9942,0.9964,0.9996,1.0022,1.0035,1.006,1.0076,1.0075,1.0083,1.0082,1.0084,1.0037,1.0029,1.0083,1.0083,1.0083,1.0083,1.0083,1.0083,0.9809,0.9846,0.9852,0.9896,0.9908,0.9939,0.9952,0.9968,0.9983,1.0019,1.0041,1.0049,1.0065,1.0091,1.0114,1.0117,1.0127,1.0136,1.0138,1.0093,1.0088,1.0082,1.0074,1.0137,1.0138,1.0183,1.0183,1.0184]}]]